Simultaneous Nadir Overpasses (SNOs) Predictions

Prediction of SNOs between AQUA and NOAA-19 Satellite Orbit:

Table of predicted SNOs for the next 14.0 days since TLE Epoch: 2/26/2022
Index Date (AQUA) Time (AQUA) Lat,Lon (AQUA) SZA (AQUA ) Date (NOAA-19) Time (NOAA-19) Lat,Lon (NOAA-19) SZA (NOAA-19 ) Distance(km) Time Diff (sec)
1 02/27/2022 04:30:52 -77.95, -85.95 92.94 02/27/2022 04:30:26 -77.96, -85.89 92.93 1.39 26
2 02/27/2022 05:20:20 77.99, 81.52 87.10 02/27/2022 05:21:28 77.99, 81.55 87.08 0.77 68
3 03/01/2022 10:04:31 77.93, 10.74 86.19 03/01/2022 10:03:31 77.93, 10.75 86.21 0.63 60
4 03/01/2022 10:53:58 -77.99, 178.14 93.76 03/01/2022 10:54:28 -77.95, 178.15 93.80 3.81 30
5 03/03/2022 16:27:36 77.93, -85.03 85.32 03/03/2022 16:27:32 77.94, -85.12 85.33 2.21 4
6 03/05/2022 22:01:13 -77.90, 11.72 95.59 03/05/2022 22:00:32 -77.93, 11.69 95.55 3.38 41
7 03/05/2022 22:50:41 77.95, 179.16 84.45 03/05/2022 22:51:33 77.94, 178.99 84.45 3.94 52
8 03/08/2022 03:34:50 77.83, 108.65 83.44 03/08/2022 03:33:39 77.75, 107.50 83.48 28.35 71
9 03/08/2022 04:24:18 -77.92, -84.13 96.46 03/08/2022 04:24:34 -77.92, -84.30 96.45 4.02 16
10 03/10/2022 09:57:56 77.90, 12.55 82.64 03/10/2022 09:57:36 77.91, 12.43 82.66 2.76 20



Historial Predications of SNOs between AQUA and NOAA-19
